User: anonymous   Login
Location: Unspecified
(0.0000°N, 0.0000°E)
Time: 06:01:54
(UTC+00:00)
Language:

TISAT 1 - Orbit

View from above orbital plane
View from above orbital plane
View from above satellite
View from above satellite

Ground track
Ground track

The orbit data is extracted from the following two-line orbital elements,

1 36799U 10035E   25143.50188978  .00010010  00000-0  52129-3 0  9998
2 36799  98.0603  56.4979 0004420 131.6762 228.4848 15.16224160808389
Epoch (UTC): 23 May 2025 12:02:43
Eccentricity: 0.0004420
inclination: 98.0603°
perigee height: 514 km
apogee height: 520 km
right ascension of ascending node: 56.4979°
argument of perigee: 131.6762°
revolutions per day: 15.16224160
mean anomaly at epoch: 228.4848°
orbit number at epoch: 80838

The dashed part of the orbit path shows where the satellite is in the earth's shadow,  

DLR